This is the latest recevied weather packets stored in our database for station/object KE0PRS. If no packets are shown the sender has not sent any weather packets the latest 10 day(s).
| Time | Temp. | Humidity | Pressure | Rain* | Wind** | Luminosity | Snow |
|---|---|---|---|---|---|---|---|
| 1788135249 | 36.67° C | 31% | 1010.5 hPa | 0 mm | - | 55 W/m² | - |
| 1788134946 | 37.22° C | 31% | 1010.1 hPa | 0 mm | - | 62 W/m² | - |
| 1788134641 | 37.22° C | 31% | 1010.5 hPa | 0 mm | - | 66 W/m² | - |
| 1788134339 | 37.22° C | 31% | 1010.2 hPa | 0 mm | - | 71 W/m² | - |
| 1788134034 | 37.78° C | 30% | 1010.2 hPa | 0 mm | - | 74 W/m² | - |
| 1788133730 | 37.78° C | 30% | 1010.2 hPa | 0 mm | - | 56 W/m² | - |
| 1788133425 | 37.78° C | 30% | 1010.2 hPa | 0 mm | - | 101 W/m² | - |
| 1788133121 | 37.78° C | 30% | 1010.1 hPa | 0 mm | - | 109 W/m² | - |
| 1788132817 | 38.33° C | 29% | 1010.1 hPa | 0 mm | - | 119 W/m² | - |
| 1788132513 | 38.33° C | 29% | 1010 hPa | 0 mm | - | 136 W/m² | - |
| 1788132208 | 38.33° C | 29% | 1009.9 hPa | 0 mm | - | 138 W/m² | - |
| 1788131905 | 38.89° C | 28% | 1010 hPa | 0 mm | - | 114 W/m² | - |
| 1788131605 | 38.89° C | 28% | 1009.9 hPa | 0 mm | - | 92 W/m² | - |
| 1788131304 | 38.89° C | 28% | 1009.9 hPa | 0 mm | - | 211 W/m² | - |
| 1788130999 | 39.44° C | 27% | 1010.1 hPa | 0 mm | - | 226 W/m² | - |
| 1788130694 | 39.44° C | 27% | 1009.9 hPa | 0 mm | - | 246 W/m² | - |
| 1788130389 | 39.44° C | 27% | 1009.8 hPa | 0 mm | - | 257 W/m² | - |
| 1788130088 | 39.44° C | 26% | 1009.8 hPa | 0 mm | - | 286 W/m² | - |
| 1788129783 | 39.44° C | 27% | 1009.9 hPa | 0 mm | - | 298 W/m² | - |
| 1788129480 | 39.44° C | 27% | 1009.7 hPa | 0 mm | - | 320 W/m² | - |
| 1788129176 | 39.44° C | 27% | 1009.8 hPa | 0 mm | - | 336 W/m² | - |
| 1788128869 | 39.44° C | 27% | 1009.8 hPa | 0 mm | - | 349 W/m² | - |
| 1788128565 | 39.44° C | 27% | 1009.8 hPa | 0 mm | - | 376 W/m² | - |
| 1788128260 | 39.44° C | 27% | 1009.7 hPa | 0 mm | - | 383 W/m² | - |
| 1788127958 | 40° C | 26% | 1009.7 hPa | 0 mm | - | 401 W/m² | - |
* Rain latest hour (hover to see other rain measurements)
** Current wind speed in m/s (hover to see current wind gust speed)